• In Deutschland
  • Länderverzeichnis
  • Für 7 Tage
  • Wassertemperatur
  • Satellitenkarten
  • Wetterkarte
  • Widgets
  • user-avatar
    Anmelden

    Stündliche Wetter Tabachuky

    Heute, 24 Mai, Donnerstag

    Zeit Temperatur Niederschläge Wind Luftdruck Luftfeuchtigkeit
    00:00 +18°C° 0 mm 1 m/S 745 mmHg 87%
    01:00 +16°C° 0 mm 2 m/S 745 mmHg 88%
    02:00 +16°C° 0 mm 1 m/S 745 mmHg 90%
    03:00 +15°C° 0 mm 1 m/S 745 mmHg 91%
    04:00 +15°C° 0 mm 2 m/S 745 mmHg 92%
    05:00 +15°C° 0 mm 2 m/S 745 mmHg 93%
    06:00 +16°C° 0,1 mm 2 m/S 745 mmHg 90%
    07:00 +17°C° 0,1 mm 3 m/S 745 mmHg 88%
    08:00 +19°C° 0 mm 3 m/S 746 mmHg 85%
    09:00 +20°C° 0,9 mm 4 m/S 746 mmHg 80%
    10:00 +21°C° 0,9 mm 4 m/S 746 mmHg 76%
    11:00 +22°C° 0,9 mm 4 m/S 745 mmHg 71%
    12:00 +22°C° 0,9 mm 4 m/S 745 mmHg 69%
    13:00 +23°C° 0,9 mm 4 m/S 745 mmHg 67%
    14:00 +23°C° 0,9 mm 4 m/S 745 mmHg 65%
    15:00 +23°C° 0,6 mm 4 m/S 745 mmHg 65%
    16:00 +23°C° 0,6 mm 4 m/S 744 mmHg 66%
    17:00 +22°C° 0,6 mm 4 m/S 744 mmHg 66%
    18:00 +21°C° 0,2 mm 3 m/S 744 mmHg 70%
    19:00 +19°C° 0,2 mm 3 m/S 744 mmHg 75%
    20:00 +18°C° 0,2 mm 2 m/S 744 mmHg 79%
    21:00 +17°C° 0 mm 2 m/S 744 mmHg 81%
    22:00 +16°C° 0 mm 2 m/S 744 mmHg 83%
    23:00 +15°C° 0 mm 2 m/S 744 mmHg 85%

    Morgen, 25 Mai, Freitag

    Zeit Temperatur Niederschläge Wind Luftdruck Luftfeuchtigkeit
    00:00 +14°C° 0 mm 2 m/S 744 mmHg 87%
    01:00 +14°C° 0 mm 2 m/S 744 mmHg 89%
    02:00 +13°C° 0 mm 2 m/S 744 mmHg 91%
    03:00 +13°C° 0 mm 2 m/S 744 mmHg 92%
    04:00 +13°C° 0 mm 2 m/S 744 mmHg 93%
    05:00 +13°C° 0 mm 2 m/S 744 mmHg 93%
    06:00 +15°C° 0 mm 2 m/S 744 mmHg 89%
    07:00 +17°C° 0 mm 2 m/S 745 mmHg 84%
    08:00 +18°C° 0 mm 2 m/S 745 mmHg 79%
    09:00 +20°C° 0,2 mm 3 m/S 745 mmHg 75%
    10:00 +21°C° 0,2 mm 3 m/S 745 mmHg 70%
    11:00 +24°C° 0,2 mm 3 m/S 745 mmHg 66%
    12:00 +23°C° 0,7 mm 4 m/S 745 mmHg 66%
    13:00 +23°C° 0,7 mm 4 m/S 745 mmHg 66%
    14:00 +25°C° 0,7 mm 4 m/S 745 mmHg 66%
    15:00 +24°C° 0,5 mm 3 m/S 745 mmHg 69%
    16:00 +24°C° 0,5 mm 3 m/S 745 mmHg 72%
    17:00 +24°C° 0,5 mm 2 m/S 745 mmHg 75%
    18:00 +22°C° 0,1 mm 3 m/S 745 mmHg 79%
    19:00 +20°C° 0,1 mm 3 m/S 745 mmHg 82%
    20:00 +19°C° 0,1 mm 3 m/S 746 mmHg 86%
    21:00 +19°C° 0 mm 3 m/S 746 mmHg 88%
    22:00 +18°C° 0 mm 3 m/S 746 mmHg 90%
    23:00 +17°C° 0 mm 3 m/S 746 mmHg 91%

    übermorgen, 26 Mai, Samstag

    Zeit Temperatur Niederschläge Wind Luftdruck Luftfeuchtigkeit
    00:00 +17°C° 0 mm 3 m/S 747 mmHg 92%
    01:00 +16°C° 0 mm 3 m/S 747 mmHg 92%
    02:00 +16°C° 0 mm 3 m/S 747 mmHg 93%
    03:00 +16°C° 0 mm 3 m/S 747 mmHg 93%
    04:00 +16°C° 0 mm 3 m/S 747 mmHg 93%
    05:00 +14°C° 0 mm 4 m/S 748 mmHg 93%
    06:00 +15°C° 0 mm 4 m/S 748 mmHg 90%
    07:00 +18°C° 0 mm 4 m/S 748 mmHg 88%
    08:00 +19°C° 0 mm 5 m/S 748 mmHg 85%
    09:00 +20°C° 0 mm 5 m/S 749 mmHg 79%
    10:00 +21°C° 0 mm 5 m/S 749 mmHg 73%
    11:00 +22°C° 0 mm 5 m/S 749 mmHg 67%
    12:00 +22°C° 0 mm 5 m/S 749 mmHg 65%
    13:00 +22°C° 0 mm 5 m/S 748 mmHg 63%
    14:00 +23°C° 0 mm 5 m/S 748 mmHg 61%
    15:00 +22°C° 0 mm 5 m/S 748 mmHg 63%
    16:00 +22°C° 0 mm 5 m/S 748 mmHg 64%
    17:00 +22°C° 0 mm 5 m/S 748 mmHg 65%
    18:00 +20°C° 0 mm 5 m/S 748 mmHg 71%
    19:00 +17°C° 0 mm 5 m/S 748 mmHg 76%
    20:00 +17°C° 0 mm 4 m/S 748 mmHg 82%
    21:00 +15°C° 0 mm 4 m/S 748 mmHg 83%
    22:00 +14°C° 0 mm 4 m/S 748 mmHg 85%
    23:00 +13°C° 0 mm 4 m/S 748 mmHg 87%

    27 Mai, Sonntag

    Zeit Temperatur Niederschläge Wind Luftdruck Luftfeuchtigkeit
    00:00 +12°C° 0 mm 4 m/S 748 mmHg 87%
    01:00 +12°C° 0 mm 4 m/S 748 mmHg 88%
    02:00 +11°C° 0 mm 4 m/S 748 mmHg 88%
    03:00 +11°C° 0 mm 4 m/S 748 mmHg 88%
    04:00 +10°C° 0 mm 4 m/S 748 mmHg 87%
    05:00 +10°C° 0 mm 3 m/S 748 mmHg 87%
    06:00 +11°C° 0 mm 4 m/S 748 mmHg 83%
    07:00 +13°C° 0 mm 4 m/S 748 mmHg 79%
    08:00 +15°C° 0 mm 5 m/S 748 mmHg 75%
    09:00 +16°C° 0 mm 5 m/S 748 mmHg 73%
    10:00 +17°C° 0 mm 5 m/S 748 mmHg 71%
    11:00 +20°C° 0 mm 5 m/S 748 mmHg 69%
    12:00 +20°C° 0 mm 5 m/S 748 mmHg 69%
    13:00 +21°C° 0 mm 5 m/S 748 mmHg 69%
    14:00 +21°C° 0 mm 4 m/S 747 mmHg 69%
    15:00 +21°C° 0 mm 4 m/S 747 mmHg 69%
    16:00 +21°C° 0 mm 4 m/S 747 mmHg 70%
    17:00 +22°C° 0 mm 4 m/S 747 mmHg 70%
    18:00 +20°C° 0 mm 4 m/S 747 mmHg 76%
    19:00 +19°C° 0 mm 3 m/S 747 mmHg 82%
    20:00 +18°C° 0 mm 3 m/S 747 mmHg 88%
    21:00 +17°C° 0 mm 3 m/S 747 mmHg 89%
    22:00 +16°C° 0 mm 3 m/S 748 mmHg 91%
    23:00 +14°C° 0 mm 3 m/S 748 mmHg 93%

    28 Mai, Montag

    Zeit Temperatur Niederschläge Wind Luftdruck Luftfeuchtigkeit
    00:00 +14°C° 0 mm 3 m/S 748 mmHg 93%
    01:00 +13°C° 0 mm 3 m/S 748 mmHg 93%
    02:00 +13°C° 0 mm 3 m/S 748 mmHg 93%
    03:00 +12°C° 0 mm 3 m/S 748 mmHg 92%
    04:00 +12°C° 0 mm 3 m/S 748 mmHg 92%
    05:00 +12°C° 0 mm 3 m/S 749 mmHg 91%
    06:00 +13°C° 0 mm 3 m/S 749 mmHg 85%
    07:00 +15°C° 0 mm 4 m/S 749 mmHg 80%
    08:00 +18°C° 0 mm 4 m/S 749 mmHg 74%
    09:00 +19°C° 0 mm 4 m/S 749 mmHg 70%
    10:00 +20°C° 0 mm 4 m/S 750 mmHg 66%
    11:00 +21°C° 0 mm 5 m/S 750 mmHg 62%
    12:00 +22°C° 0 mm 4 m/S 750 mmHg 61%
    13:00 +22°C° 0 mm 4 m/S 750 mmHg 60%
    14:00 +23°C° 0 mm 4 m/S 749 mmHg 59%
    15:00 +22°C° 0 mm 4 m/S 749 mmHg 60%
    16:00 +22°C° 0 mm 4 m/S 749 mmHg 61%
    17:00 +22°C° 0 mm 5 m/S 749 mmHg 62%
    18:00 +20°C° 0 mm 4 m/S 749 mmHg 68%
    19:00 +19°C° 0 mm 4 m/S 749 mmHg 73%
    20:00 +17°C° 0 mm 3 m/S 750 mmHg 78%
    21:00 +16°C° 0 mm 3 m/S 750 mmHg 80%
    22:00 +16°C° 0 mm 3 m/S 750 mmHg 81%
    23:00 +14°C° 0 mm 3 m/S 750 mmHg 82%

    29 Mai, Dienstag

    Zeit Temperatur Niederschläge Wind Luftdruck Luftfeuchtigkeit
    00:00 +13°C° 0 mm 3 m/S 750 mmHg 84%
    01:00 +12°C° 0 mm 3 m/S 750 mmHg 86%
    02:00 +12°C° 0 mm 3 m/S 750 mmHg 87%
    03:00 +12°C° 0 mm 3 m/S 750 mmHg 88%
    04:00 +11°C° 0 mm 3 m/S 751 mmHg 89%
    05:00 +11°C° 0 mm 3 m/S 751 mmHg 90%
    06:00 +13°C° 0 mm 4 m/S 751 mmHg 85%
    07:00 +15°C° 0 mm 4 m/S 751 mmHg 79%
    08:00 +17°C° 0 mm 5 m/S 751 mmHg 73%
    09:00 +19°C° 0 mm 5 m/S 751 mmHg 69%
    10:00 +20°C° 0 mm 5 m/S 751 mmHg 65%
    11:00 +22°C° 0 mm 6 m/S 751 mmHg 60%
    12:00 +22°C° 0 mm 6 m/S 751 mmHg 59%
    13:00 +23°C° 0 mm 6 m/S 750 mmHg 58%
    14:00 +24°C° 0 mm 6 m/S 750 mmHg 56%
    15:00 +25°C° 0 mm 5 m/S 750 mmHg 58%
    16:00 +25°C° 0 mm 5 m/S 749 mmHg 60%
    17:00 +23°C° 0 mm 5 m/S 749 mmHg 62%
    18:00 +22°C° 0 mm 4 m/S 749 mmHg 69%
    19:00 +21°C° 0 mm 4 m/S 749 mmHg 75%
    20:00 +19°C° 0 mm 3 m/S 749 mmHg 81%
    21:00 +18°C° 0 mm 3 m/S 749 mmHg 84%
    22:00 +18°C° 0 mm 3 m/S 749 mmHg 86%
    23:00 +17°C° 0 mm 4 m/S 749 mmHg 89%
    Mehr zeigen